Precipitable_Water
0.19 0.19 0.17 0.16 0.17 0.18 0.19 0.19 0.18 0.14 0.14 0.17 0.18 0.21 0.23 0.23 0.23 0.25 0.24 0.22 0.23 0.25 0.26 0.27 0.29 0.31 0.33 0.35 0.36 0.36 0.35 0.37 0.37 0.40 0.39 0.39 0.42 0.39
0.18 0.17 0.16 0.16 0.17 0.18 0.20 0.20 0.20 0.20 0.16 0.17 0.17 0.20 0.21 0.23 0.25 0.25 0.25 0.24 0.23 0.25 0.28 0.29 0.31 0.32 0.34 0.36 0.33 0.29 0.31 0.33 0.34 0.35 0.37 0.42 0.40 0.37
0.17 0.17 0.16 0.17 0.18 0.19 0.20 0.21 0.22 0.21 0.18 0.16 0.19 0.20 0.21 0.21 0.22 0.26 0.28 0.25 0.25 0.27 0.30 0.34 0.33 0.28 0.29 0.28 0.29 0.31 0.30 0.35 0.38 0.38 0.36 0.40 0.43 0.44
0.17 0.18 0.18 0.18 0.19 0.20 0.21 0.21 0.21 0.22 0.21 0.19 0.19 0.22 0.21 0.24 0.25 0.24 0.25 0.30 0.28 0.29 0.28 0.28 0.27 0.26 0.25 0.27 0.29 0.31 0.28 0.28 0.29 0.29 0.32 0.31 0.38 0.44
0.19 0.19 0.18 0.19 0.19 0.21 0.21 0.22 0.22 0.24 0.26 0.24 0.20 0.21 0.23 0.27 0.23 0.26 0.27 0.24 0.23 0.24 0.23 0.22 0.24 0.24 0.25 0.27 0.28 0.29 0.30 0.31 0.35 0.36 0.37 0.39 0.38 0.38
0.20 0.20 0.20 0.20 0.21 0.22 0.22 0.23 0.24 0.22 0.21 0.21 0.23 0.24 0.22 0.24 0.27 0.19 0.17 0.20 0.21 0.22 0.22 0.23 0.24 0.24 0.25 0.26 0.26 0.26 0.27 0.28 0.29 0.30 0.32 0.33 0.33 0.34
0.20 0.21 0.22 0.23 0.23 0.23 0.23 0.22 0.22 0.23 0.24 0.25 0.21 0.22 0.24 0.19 0.18 0.19 0.18 0.20 0.22 0.23 0.23 0.26 0.28 0.28 0.27 0.27 0.27 0.27 0.28 0.30 0.31 0.33 0.34 0.35 0.35 0.35
0.20 0.21 0.22 0.22 0.22 0.23 0.23 0.24 0.26 0.24 0.24 0.24 0.24 0.20 0.18 0.19 0.20 0.19 0.21 0.22 0.20 0.29 0.27 0.26 0.29 0.27 0.29 0.30 0.30 0.31 0.33 0.35 0.38 0.34 0.39 0.36 0.37 0.39
0.21 0.21 0.21 0.22 0.23 0.23 0.23 0.25 0.26 0.28 0.29 0.26 0.21 0.20 0.20 0.20 0.23 0.25 0.26 0.26 0.26 0.29 0.29 0.26 0.29 0.28 0.30 0.32 0.32 0.32 0.33 0.33 0.34 0.37 0.38 0.37 0.38 0.39
0.22 0.22 0.21 0.22 0.24 0.23 0.24 0.24 0.27 0.27 0.25 0.24 0.23 0.23 0.26 0.30 0.30 0.29 0.29 0.29 0.29 0.28 0.28 0.23 0.28 0.26 0.28 0.30 0.31 0.32 0.33 0.35 0.37 0.39 0.39 0.39 0.39 0.35
0.21 0.22 0.24 0.22 0.22 0.24 0.26 0.26 0.24 0.23 0.22 0.23 0.27 0.30 0.30 0.30 0.31 0.31 0.28 0.26 0.25 0.26 0.29 0.28 0.28 0.28 0.30 0.30 0.32 0.32 0.35 0.37 0.39 0.41 0.40 0.41 0.42 0.39
0.22 0.23 0.22 0.21 0.23 0.28 0.25 0.23 0.19 0.18 0.24 0.29 0.28 0.28 0.30 0.32 0.33 0.32 0.31 0.27 0.27 0.26 0.28 0.28 0.29 0.30 0.27 0.31 0.32 0.33 0.34 0.34 0.35 0.35 0.36 0.37 0.37 0.34
0.21 0.20 0.20 0.23 0.29 0.23 0.22 0.21 0.20 0.26 0.29 0.28 0.29 0.30 0.32 0.33 0.33 0.34 0.34 0.32 0.29 0.28 0.32 0.33 0.31 0.31 0.30 0.30 0.31 0.33 0.34 0.34 0.35 0.35 0.35 0.34 0.34 0.34
0.21 0.21 0.24 0.27 0.22 0.21 0.21 0.22 0.27 0.31 0.29 0.29 0.29 0.30 0.30 0.31 0.33 0.34 0.35 0.36 0.36 0.34 0.36 0.36 0.32 0.31 0.29 0.27 0.26 0.31 0.33 0.36 0.36 0.36 0.37 0.37 0.35 0.34
0.23 0.25 0.24 0.21 0.20 0.19 0.21 0.28 0.30 0.29 0.29 0.29 0.29 0.30 0.32 0.33 0.35 0.35 0.36 0.37 0.37 0.38 0.38 0.37 0.35 0.34 0.32 0.28 0.28 0.31 0.33 0.38 0.41 0.40 0.37 0.36 0.35 0.35
0.25 0.23 0.20 0.19 0.20 0.21 0.27 0.29 0.30 0.31 0.30 0.30 0.30 0.32 0.33 0.34 0.33 0.35 0.34 0.35 0.34 0.34 0.37 0.38 0.37 0.35 0.31 0.31 0.32 0.32 0.36 0.35 0.43 0.44 0.44 0.41 0.39 0.37
0.22 0.20 0.18 0.18 0.20 0.26 0.28 0.29 0.30 0.31 0.30 0.31 0.31 0.31 0.32 0.33 0.33 0.35 0.35 0.35 0.33 0.33 0.33 0.36 0.38 0.37 0.36 0.34 0.32 0.36 0.39 0.41 0.45 0.47 0.45 0.44 0.44 0.42
0.20 0.18 0.18 0.21 0.26 0.27 0.27 0.28 0.29 0.30 0.31 0.31 0.31 0.30 0.29 0.29 0.29 0.32 0.34 0.34 0.33 0.34 0.33 0.34 0.34 0.33 0.34 0.37 0.40 0.38 0.42 0.42 0.45 0.46 0.49 0.45 0.42 0.49
0.19 0.20 0.21 0.25 0.27 0.28 0.28 0.28 0.29 0.30 0.32 0.30 0.28 0.27 0.27 0.26 0.26 0.27 0.29 0.31 0.33 0.35 0.33 0.36 0.35 0.33 0.30 0.29 0.36 0.45 0.42 0.45 0.46 0.45 0.48 0.49 0.48 0.50
0.21 0.21 0.25 0.27 0.28 0.28 0.28 0.29 0.29 0.29 0.28 0.26 0.27 0.27 0.27 0.26 0.24 0.25 0.27 0.29 0.31 0.34 0.31 0.36 0.36 0.35 0.32 0.31 0.32 0.39 0.49 0.47 0.46 0.45 0.47 0.51 0.53 0.57
0.22 0.25 0.27 0.29 0.28 0.28 0.29 0.29 0.28 0.27 0.27 0.27 0.28 0.26 0.27 0.26 0.25 0.27 0.28 0.29 0.31 0.32 0.29 0.34 0.38 0.42 0.41 0.41 0.36 0.37 0.43 0.51 0.52 0.49 0.50 0.48 0.47 0.50
0.25 0.27 0.28 0.28 0.27 0.28 0.28 0.28 0.27 0.27 0.27 0.28 0.28 0.27 0.27 0.27 0.27 0.27 0.28 0.27 0.28 0.30 0.31 0.36 0.40 0.41 0.39 0.36 0.35 0.37 0.40 0.46 0.52 0.54 0.55 0.54 0.49 0.43
0.27 0.27 0.27 0.27 0.28 0.28 0.28 0.28 0.27 0.28 0.29 0.29 0.29 0.28 0.29 0.28 0.29 0.30 0.29 0.28 0.28 0.29 0.30 0.29 0.37 0.39 0.38 0.38 0.36 0.36 0.38 0.41 0.44 0.44 0.47 0.53 0.54 0.55
Wind_Speed
47 48 50 53 54 55 57 58 60 64 64 63 63 62 63 65 64 64 64 65 65 64 63 62 60 60 60 59 59 59 60 62 63 64 66 68 68 71
48 51 53 55 56 57 58 59 60 62 66 64 64 65 65 64 64 63 63 62 60 59 58 57 55 55 55 55 57 58 58 58 59 60 61 62 64 66
51 54 56 57 58 59 59 60 60 61 64 67 65 64 63 64 61 60 60 57 56 55 53 51 52 53 54 55 55 55 55 54 54 55 56 57 58 60
55 56 58 59 60 60 60 60 61 61 62 64 63 62 62 59 58 58 55 53 52 52 53 52 52 53 53 51 51 51 52 52 52 52 53 54 54 55
56 58 60 60 61 60 60 61 61 60 59 60 61 60 58 55 56 52 50 50 51 49 48 48 47 47 48 48 48 48 49 49 48 48 49 49 50 51
58 59 60 60 60 61 60 59 58 59 59 57 57 54 55 51 49 52 50 45 44 43 43 43 43 43 42 43 44 44 45 45 46 47 48 48 48 49
60 60 60 60 60 59 58 59 58 56 55 52 54 51 47 50 48 45 43 42 39 39 38 36 35 36 37 39 39 39 39 39 40 41 44 45 46 47
61 62 60 60 59 58 58 57 54 53 52 50 47 48 48 44 41 40 39 37 36 37 38 39 38 38 37 36 37 36 36 36 37 39 40 42 43 45
62 61 60 58 57 57 55 54 51 49 47 46 46 42 40 39 39 37 38 40 39 40 40 38 37 36 36 35 36 36 36 38 38 39 39 39 42 43
60 59 58 57 56 54 52 49 46 42 41 39 38 37 37 38 39 38 37 36 35 34 33 32 33 32 32 32 33 33 35 36 36 38 39 38 38 41
59 57 56 55 53 50 47 45 41 37 36 35 34 35 37 35 32 31 29 29 30 29 30 30 29 29 29 29 28 28 27 28 29 27 29 32 34 36
56 54 52 50 47 44 42 38 35 33 32 32 33 31 29 29 29 27 28 28 29 29 29 28 28 26 24 23 21 22 22 23 24 24 24 26 29 32
53 50 48 46 42 40 37 33 30 31 31 29 26 26 26 26 26 26 26 26 27 27 29 28 26 24 22 22 19 19 19 19 18 18 19 21 26 31
49 47 43 41 38 35 30 28 29 28 25 24 25 25 26 26 25 25 25 26 26 27 28 27 24 21 19 18 17 15 14 12 10 10 12 17 24 32
46 43 40 37 33 27 26 27 26 23 22 23 24 25 25 25 25 25 25 25 26 26 26 25 22 17 13 12 11 11 11 9 6 5 6 14 22 30
41 38 34 30 26 24 24 24 22 21 22 23 23 24 24 24 24 24 24 25 24 25 25 24 19 13 9 8 9 10 9 8 9 6 5 10 21 28
38 32 28 24 23 23 23 21 21 22 23 23 23 23 24 24 23 24 24 24 24 24 24 22 20 14 8 8 10 11 11 10 11 11 13 15 18 23
30 27 24 23 23 22 21 21 22 23 23 23 24 24 24 24 23 23 22 22 22 23 21 20 18 15 13 12 14 14 15 14 15 15 16 19 19 19
26 24 23 22 21 21 22 22 22 23 24 24 25 25 24 23 22 21 20 19 20 20 20 17 14 13 13 14 15 19 17 18 20 21 22 23 23 22
24 23 22 22 21 22 23 23 23 24 25 25 25 24 24 22 20 19 18 17 17 17 17 15 13 12 11 12 13 16 20 19 20 22 22 24 26 26
23 22 22 21 21 23 24 24 24 24 24 24 24 23 22 21 19 18 16 17 15 13 13 13 11 10 10 11 13 15 16 20 20 20 22 23 24 26
21 22 21 22 23 24 24 24 23 23 23 23 23 22 21 20 18 17 16 14 12 10 8 8 10 9 10 10 12 13 14 17 20 22 23 22 21 24
21 21 22 23 24 23 23 23 22 22 23 23 21 22 21 19 18 17 14 13 10 7 5 4 6 8 9 10 11 11 13 15 17 19 22 24 25 27
Wind_Direction
310 309 308 308 306 305 304 303 302 302 301 302 302 301 300 299 298 297 295 294 292 290 288 285 283 281 279 277 275 273 271 269 266 264 261 259 256 253
311 311 310 309 308 307 305 304 302 301 301 303 302 302 301 300 299 297 296 295 293 291 288 286 284 282 279 277 276 275 272 269 267 264 261 259 257 254
312 312 311 310 309 308 306 305 303 302 301 302 302 302 301 300 299 298 297 295 294 292 290 286 285 283 280 279 277 274 272 270 267 264 262 260 257 253
313 313 312 312 310 308 307 305 304 304 302 302 303 303 302 301 300 299 297 295 295 293 290 287 285 283 282 279 277 275 273 270 267 265 262 258 256 253
314 314 314 312 311 309 308 307 305 305 304 303 303 303 303 303 301 300 299 297 296 294 292 290 287 285 283 281 278 276 273 271 268 264 261 258 255 252
315 315 314 313 311 310 309 308 307 306 305 304 303 304 304 304 303 302 301 300 298 297 295 292 290 288 285 283 281 278 275 271 267 264 260 257 254 250
316 315 315 313 312 311 310 309 308 307 306 305 305 305 306 306 305 305 303 302 300 300 299 297 295 292 289 287 283 280 276 272 267 264 261 255 252 247
316 316 315 314 312 311 310 309 309 309 308 306 306 306 307 307 307 306 305 304 303 303 300 297 296 293 290 288 285 281 276 273 269 267 262 256 251 245
317 316 315 314 313 312 311 310 310 309 307 307 307 308 308 309 309 308 306 304 303 303 301 299 297 293 291 288 285 282 278 276 271 267 262 257 249 243
317 316 315 315 314 314 313 313 312 312 311 311 310 310 311 311 310 309 309 308 307 308 308 304 303 298 295 292 289 285 281 278 273 268 260 253 248 241
318 318 317 316 315 315 315 316 316 316 315 315 314 314 314 315 316 317 317 317 316 315 316 312 311 306 301 297 294 290 286 282 276 268 259 250 242 234
320 319 319 319 318 318 319 319 319 320 321 321 320 321 322 323 323 322 321 319 318 318 320 316 314 314 312 306 300 297 293 287 279 270 258 245 234 219
322 323 322 321 321 321 322 321 321 323 325 326 328 330 330 331 330 330 328 326 325 323 325 322 317 314 313 310 309 307 302 297 284 268 254 237 218 209
324 324 323 324 324 324 326 326 327 329 331 333 334 335 336 336 336 336 335 334 331 327 328 327 322 317 316 317 315 321 321 316 302 272 243 222 210 201
325 325 325 326 327 329 330 332 333 335 336 337 338 339 339 339 339 340 341 340 340 340 339 337 332 327 328 328 334 342 344 347 340 321 232 203 193 190
327 328 329 330 332 333 335 337 339 340 339 339 340 341 343 345 345 346 346 347 348 351 353 354 353 350 355 2 3 4 14 32 22 39 104 164 178 182
330 332 335 337 337 338 339 340 341 340 341 341 342 342 343 344 347 348 350 351 354 356 0 6 11 17 28 30 33 38 42 47 54 74 97 118 143 167
334 336 338 338 338 340 340 340 340 340 341 341 340 339 340 341 342 345 349 354 358 1 6 12 23 36 54 60 56 54 59 66 71 83 102 110 121 140
336 338 338 339 340 340 340 340 339 339 339 338 337 337 337 338 339 342 346 351 357 5 11 19 32 48 60 66 66 58 70 73 79 89 100 104 110 116
338 339 339 339 339 339 339 338 338 337 337 337 338 338 338 338 337 341 344 348 354 3 15 25 39 55 69 76 77 72 71 81 86 90 97 102 107 110
339 340 340 340 339 338 337 336 336 336 337 338 339 339 340 341 340 340 341 346 352 1 15 29 44 59 76 86 88 84 83 80 87 97 100 106 106 109
340 340 341 340 338 338 337 337 338 339 341 342 342 343 343 343 343 341 342 341 347 357 13 34 51 72 83 91 95 96 95 92 92 94 99 105 116 114
341 342 341 341 341 341 341 342 342 342 343 345 347 347 346 346 346 345 344 343 345 352 7 41 67 79 91 95 100 109 106 107 107 105 104 107 111 114